Temperature
21 21 21 21 21 21 21 22 22 22 22 22 22 21 20 19 19 18 18 17 17 16 16 16 16 16 16 15 15 15 15 15 15 15 15 15 15 15 15 14 14 14 14 14
20 20 20 20 20 21 21 21 21 21 21 22 21 20 20 19 18 18 17 17 17 16 16 16 16 16 16 15 15 15 15 15 15 15 15 15 15 15 14 14 14 14 14 14
20 20 20 20 20 21 20 21 21 21 21 21 21 20 19 19 18 18 17 17 16 16 16 16 16 16 16 15 15 15 15 15 15 15 15 15 15 14 14 14 14 14 14 13
20 19 19 20 20 20 20 20 20 20 20 20 20 19 18 18 18 17 17 16 16 16 16 16 16 16 15 15 15 15 15 15 15 14 15 15 14 14 14 14 14 14 13 13
19 19 19 20 19 19 20 19 20 20 19 19 18 19 19 17 17 17 17 16 16 16 16 16 15 15 15 15 15 15 14 14 14 14 14 14 14 14 14 14 14 14 13 13
18 18 19 20 19 18 19 19 19 18 18 18 18 20 20 17 16 16 16 16 16 16 15 15 15 15 15 15 14 14 14 14 14 14 14 14 14 14 14 14 13 13 13 13
18 18 19 19 18 18 19 19 18 17 17 17 18 18 17 16 16 16 16 16 15 15 15 15 15 15 14 14 14 14 14 14 14 14 14 13 13 13 13 13 13 13 12 12
18 18 18 17 17 18 19 18 17 17 17 16 16 16 15 15 15 15 15 15 15 15 15 15 14 14 14 14 14 13 13 13 13 13 13 13 13 13 13 13 12 12 12 12
18 18 17 16 17 16 16 16 16 16 16 15 15 15 15 14 14 14 15 15 15 15 14 14 14 14 14 14 13 13 13 13 13 13 13 13 12 12 12 12 12 12 11 11
16 16 16 15 15 14 15 15 15 15 15 14 14 14 14 14 14 14 14 14 14 14 14 14 14 14 13 13 13 13 13 13 13 12 12 12 12 12 12 11 11 11 11 11
16 16 15 14 14 14 14 14 14 14 14 14 14 14 14 14 14 14 14 14 14 14 14 13 14 14 13 13 13 13 12 12 12 12 12 12 11 11 11 11 11 11 11 11
15 15 15 15 14 13 13 13 13 13 13 13 13 13 13 13 13 13 13 13 13 13 13 13 13 13 13 13 12 12 12 12 12 12 11 11 11 11 11 11 11 10 11 10
13 13 13 13 13 13 13 13 12 12 12 12 12 12 12 12 13 13 13 13 13 13 13 13 12 13 13 13 12 12 12 11 11 11 11 11 10 10 10 10 10 10 10 10
12 12 12 12 12 12 12 12 12 12 12 12 12 12 12 12 12 12 12 12 12 12 12 12 12 12 12 12 12 11 11 11 11 11 10 10 10 10 10 9 9 10 10 10
11 11 11 12 11 11 12 12 11 12 12 12 12 11 11 11 11 11 11 12 12 12 11 11 11 11 11 11 11 11 10 10 10 10 10 9 9 9 9 9 9 9 9 9
10 11 11 11 11 11 11 11 11 11 11 11 11 11 11 11 11 11 11 11 11 11 11 11 11 11 11 11 10 10 10 10 10 10 9 9 9 9 9 8 8 8 8 8
10 10 10 10 10 10 10 11 11 11 11 11 11 11 10 10 10 10 10 10 10 10 10 10 10 10 10 10 10 10 9 9 9 9 9 9 8 8 8 8 8 8 8 8
10 10 10 10 10 10 10 10 10 10 10 10 10 10 10 10 10 10 9 10 10 10 10 10 10 10 10 9 9 9 9 9 9 8 8 8 8 8 8 8 8 8 8 7
9 9 9 9 9 9 9 10 10 10 10 9 9 9 9 9 9 9 9 9 9 9 9 9 9 9 9 9 9 9 8 8 8 8 8 8 8 7 7 7 7 7 7 7
9 9 9 9 9 9 9 9 9 9 9 9 9 9 9 8 8 8 8 8 9 9 8 8 8 8 8 8 8 8 8 8 8 8 7 7 7 7 7 7 7 7 7 7
8 9 9 8 8 8 8 8 8 8 8 8 8 8 8 8 8 8 8 8 8 8 8 8 8 8 8 8 8 7 7 7 7 7 7 7 7 7 6 6 6 6 6 6
8 8 8 8 8 8 8 8 8 8 8 8 8 8 8 8 8 7 7 7 8 8 7 7 7 7 7 7 7 7 7 7 6 6 6 6 6 6 6 6 5 5 5 5
8 8 7 7 7 7 7 7 7 7 7 7 7 7 7 7 7 7 7 7 7 7 7 7 7 7 7 6 6 6 6 6 6 6 6 6 5 5 5 5 5 5 5 5
7 7 7 7 7 7 7 7 7 7 7 7 7 7 7 7 7 7 7 7 7 7 7 6 6 6 6 6 6 6 6 6 5 5 5 5 5 5 4 4 4 4 4 4
7 7 6 6 6 6 6 6 6 6 6 7 7 6 6 6 6 6 6 6 6 6 6 6 6 6 6 6 5 5 5 5 5 5 5 4 4 4 4 4 4 4 4 4
6 6 6 6 6 6 6 6 6 6 6 6 6 6 6 6 6 6 6 6 6 6 6 6 5 5 5 5 5 5 5 5 5 4 4 4 4 3 3 3 3 3 3 3
6 5 5 5 5 5 5 5 5 5 5 6 6 6 6 6 6 6 5 5 5 5 5 5 5 5 5 5 5 4 4 4 4 4 4 4 3 3 3 3 3 2 2 2
Wind_Speed
6 5 6 8 9 10 12 11 11 9 9 8 6 5 4 3 3 4 4 5 5 6 6 6 5 5 5 5 5 5 5 5 4 4 4 5 5 5 4 4 4 4 4 4
7 6 7 10 11 12 13 12 12 11 11 8 6 5 4 4 4 5 4 5 5 5 6 6 6 5 5 5 5 5 5 5 4 4 4 4 4 4 4 4 4 4 4 4
8 6 7 11 11 12 11 11 11 12 9 6 6 6 6 5 5 6 5 5 5 5 5 6 6 6 6 5 5 5 5 5 5 5 5 4 4 4 4 4 4 5 5 4
6 7 11 4 1 5 7 7 8 8 7 7 7 7 5 4 5 5 5 5 5 5 5 5 5 5 5 5 5 5 4 4 4 5 5 4 4 4 4 4 4 4 4 5
7 9 9 6 5 5 7 7 5 6 5 4 5 6 6 4 4 5 5 5 5 5 5 5 5 5 5 5 5 5 4 4 5 5 5 5 5 4 4 4 4 4 4 4
8 9 9 5 3 3 5 7 2 3 3 3 4 6 4 3 4 4 4 4 4 4 4 4 4 5 5 5 5 5 4 4 4 5 5 5 5 4 4 4 4 3 3 3
12 11 7 2 2 5 7 3 2 3 3 4 5 4 2 2 3 3 3 3 4 5 4 4 4 5 5 5 5 4 4 4 4 4 5 4 4 3 4 4 4 4 4 3
10 11 9 3 5 6 3 1 2 3 4 5 4 3 2 1 2 2 2 4 5 5 4 4 5 5 4 4 3 3 4 4 4 4 4 4 4 4 4 4 4 4 4 3
7 6 1 3 4 3 3 3 3 4 4 4 4 4 3 3 2 2 3 4 5 5 5 5 5 5 5 3 3 4 4 4 4 4 4 4 4 4 4 4 4 4 4 4
7 7 5 5 4 4 4 4 4 4 4 4 5 5 4 4 3 3 3 4 4 5 6 5 5 5 4 3 3 4 5 4 4 4 3 3 3 4 4 4 4 4 4 4
9 7 5 6 6 5 5 5 5 5 5 6 6 6 5 5 4 4 3 4 4 5 6 6 5 5 4 4 4 4 4 4 4 4 3 3 3 2 4 4 3 4 4 4
8 7 6 7 6 6 6 6 6 6 6 6 6 6 6 5 5 4 4 4 4 5 5 6 5 5 4 4 5 4 4 4 3 3 3 3 3 2 1 1 1 1 1 3
10 9 8 8 8 8 7 7 7 7 6 6 5 5 5 5 4 4 4 5 5 5 5 5 5 5 4 4 5 5 4 4 3 3 4 4 4 3 2 1 1 2 3 4
8 8 9 9 9 9 8 8 7 7 6 6 5 5 5 4 3 4 4 4 4 5 5 5 4 4 4 4 5 4 4 3 3 4 4 4 4 4 4 4 3 3 3 5
9 9 9 8 8 7 7 6 6 6 6 5 4 4 4 4 4 4 4 4 4 5 4 4 4 4 4 4 5 4 4 3 3 3 4 4 4 5 5 5 4 4 3 3
8 8 7 8 8 7 7 7 7 7 6 6 5 5 4 4 4 3 3 4 5 5 4 4 4 4 4 4 4 4 3 3 3 4 4 4 5 5 5 5 5 5 5 4
7 7 7 8 8 8 8 8 8 7 6 6 5 4 3 3 3 3 3 3 4 4 4 4 4 4 4 5 4 4 3 4 5 4 4 5 5 5 6 6 6 5 5 5
9 9 9 9 8 7 7 6 6 6 6 6 5 4 4 5 5 4 3 3 3 4 4 4 4 4 4 4 4 3 4 4 5 5 5 5 5 5 5 6 6 7 5 5
7 7 8 7 7 6 5 5 5 5 5 5 5 5 5 4 4 3 3 3 3 4 3 3 3 4 4 4 3 4 4 4 4 5 4 4 5 5 5 6 6 6 5 5
5 5 5 5 5 4 4 4 3 3 4 5 5 5 5 4 4 4 4 5 4 4 3 3 4 4 4 4 3 4 4 5 5 4 4 5 5 5 5 6 6 6 6 6
3 3 3 3 3 3 3 3 3 3 3 4 5 5 5 4 4 4 4 5 4 3 3 3 3 3 3 3 4 4 4 4 5 5 5 5 5 5 6 6 6 6 5 5
2 2 2 2 2 2 2 3 3 3 3 3 4 4 4 4 4 4 5 5 4 3 3 3 3 3 4 4 4 4 4 4 5 4 5 5 5 5 5 6 6 6 6 6
2 2 2 2 2 2 2 2 2 3 3 3 3 4 4 4 3 4 4 3 3 3 3 3 3 4 4 4 4 4 4 5 5 5 5 5 5 5 5 6 6 6 6 6
3 2 2 2 2 2 3 3 3 2 3 3 3 4 4 3 4 4 4 3 3 3 3 3 4 4 4 4 4 4 4 5 5 5 5 5 5 5 5 5 5 5 5 6
3 3 2 2 3 3 3 3 3 3 3 3 4 4 4 4 4 4 3 4 4 4 4 4 4 5 4 4 4 5 4 5 5 4 5 5 5 5 5 5 5 6 6 6
3 3 3 4 4 3 3 3 3 3 3 3 3 3 3 3 3 3 3 4 4 4 4 4 4 4 4 4 4 4 4 4 5 5 5 5 6 6 6 6 7 6 6 6
3 3 3 3 4 4 4 4 4 4 4 4 4 4 3 3 3 3 4 4 4 4 4 4 4 4 4 4 4 4 4 4 5 5 5 5 5 6 6 7 6 6 6 7
Wind_Direction
256 258 245 246 239 228 232 245 253 253 253 251 250 246 241 220 195 177 178 178 180 183 182 183 183 183 182 180 180 180 181 188 194 190 183 189 188 194 195 192 197 195 195 195
242 230 233 247 246 240 241 246 248 252 257 260 258 240 231 211 195 189 190 196 196 194 188 188 187 185 185 186 186 184 185 189 185 182 177 183 187 190 191 195 199 195 200 200
247 231 244 250 245 235 233 234 237 248 256 254 247 235 230 219 205 204 206 204 201 201 196 193 191 190 187 190 188 187 189 188 185 185 180 182 182 182 187 193 193 197 200 199
247 235 244 250 201 221 227 240 247 255 261 254 248 242 232 231 222 217 212 208 204 198 193 195 190 185 183 182 185 188 188 186 183 184 182 180 181 188 198 196 190 196 198 201
236 244 254 250 234 227 229 242 251 249 255 260 249 230 218 226 235 230 222 210 203 195 188 183 180 180 178 179 183 188 192 194 187 186 183 183 185 190 194 192 190 194 195 197
231 241 248 241 199 216 233 239 218 232 239 232 218 228 231 243 247 234 219 201 193 183 177 174 171 176 182 185 186 192 198 198 191 187 183 189 194 192 186 189 191 191 190 197
232 242 249 243 173 192 226 247 159 212 222 211 222 262 293 272 238 228 209 189 178 171 170 172 168 172 182 186 193 193 188 184 184 182 184 185 186 189 188 186 186 193 190 195
227 236 241 154 178 212 259 335 211 227 229 231 246 275 277 259 231 216 199 184 173 172 173 169 167 172 182 192 195 184 177 178 182 181 181 182 181 188 191 187 191 197 202 200
229 239 279 195 225 258 279 247 243 242 239 233 241 255 258 252 240 218 199 185 181 178 176 176 177 184 189 185 176 180 180 182 184 182 183 189 190 190 193 196 203 207 210 214
247 246 243 239 242 257 255 255 261 262 257 249 249 251 248 246 240 228 215 192 189 187 187 189 189 193 194 179 178 183 185 187 187 184 185 189 197 202 202 206 210 213 216 221
248 249 255 250 247 251 254 258 254 253 251 252 255 252 248 244 241 234 225 207 199 200 199 198 192 191 188 179 184 190 190 190 191 188 189 194 197 212 217 217 222 221 223 226
247 248 252 258 257 259 254 254 249 247 250 253 248 247 248 243 238 233 224 212 206 203 204 201 193 188 183 182 190 195 198 196 195 195 195 198 194 186 54 239 149 201 256 244
265 269 272 268 261 257 254 255 252 247 244 244 245 243 244 245 239 231 220 215 210 206 205 200 195 190 188 190 196 200 206 206 204 204 203 205 204 204 210 214 182 208 214 219
262 264 264 261 261 260 257 255 251 244 240 239 242 243 240 237 236 231 226 222 213 206 203 198 195 199 196 194 198 204 208 208 211 214 214 212 213 216 220 223 228 233 215 207
261 260 260 263 262 260 256 246 239 237 235 235 236 233 228 228 230 233 231 219 207 204 204 199 198 204 196 194 198 205 209 213 220 223 220 217 217 219 223 229 233 233 229 208
265 266 261 259 259 254 249 243 238 237 233 233 231 228 228 230 231 231 226 212 206 209 210 208 208 206 198 198 201 209 214 205 214 223 223 223 222 223 225 229 232 235 234 229
255 262 262 259 257 256 253 249 245 238 230 224 226 221 214 216 220 223 230 228 219 215 213 214 216 212 208 207 211 216 216 211 206 221 227 228 229 230 230 232 234 238 240 233
253 255 258 257 257 259 258 254 240 231 226 220 215 208 206 212 218 221 227 233 227 219 226 227 219 211 213 216 222 224 222 221 223 227 230 232 235 237 238 238 237 239 242 234
262 262 260 260 261 257 250 247 236 225 215 208 206 207 212 222 227 225 225 227 230 229 234 228 205 209 219 227 228 226 224 223 229 231 232 228 232 238 241 242 243 243 242 242
261 262 261 259 257 248 242 238 232 217 207 203 207 211 216 223 225 224 226 232 238 245 237 214 208 218 224 222 220 231 226 224 225 228 231 231 235 240 242 243 244 245 245 244
253 252 255 257 250 243 236 231 226 225 220 213 215 219 222 225 224 222 225 237 247 251 234 208 220 225 223 218 214 232 230 229 229 229 232 235 238 241 242 242 244 246 248 250
254 249 257 258 251 247 241 233 227 223 223 225 225 222 221 225 224 225 231 242 248 234 229 226 228 222 213 215 223 229 230 231 235 235 236 238 240 243 245 245 246 249 252 255
264 266 266 263 257 256 252 245 239 229 226 229 231 228 228 230 229 232 244 251 247 236 238 234 218 202 205 221 226 228 231 235 238 239 239 241 243 245 248 249 251 252 255 257
270 273 276 272 264 254 259 262 255 245 241 242 242 241 239 235 237 243 255 238 229 234 241 221 200 210 223 233 232 233 235 239 241 243 244 246 247 250 254 257 261 263 262 262
270 270 266 258 254 257 262 264 256 248 246 247 248 242 241 242 246 249 247 238 225 229 240 225 213 219 229 237 235 236 239 242 244 244 244 248 252 254 256 258 263 263 263 263
267 270 265 257 254 255 255 251 248 246 242 245 250 250 250 252 251 248 248 243 238 240 248 245 233 230 237 240 241 242 243 244 245 245 247 251 254 256 258 258 261 261 264 265
269 268 265 261 256 251 249 248 246 245 242 243 249 251 250 252 248 244 245 244 241 241 245 245 241 242 242 243 243 243 244 246 248 249 251 253 255 256 257 259 261 261 263 265
Height
1509 1510 1511 1512 1513 1513 1513 1509 1511 1509 1510 1510 1512 1515 1517 1519 1520 1521 1523 1524 1525 1526 1527 1528 1530 1531 1532 1533 1534 1535 1537 1538 1539 1541 1542 1543 1544 1545 1546 1547 1548 1549 1549 1550
1512 1511 1512 1512 1510 1510 1510 1509 1509 1509 1510 1509 1511 1514 1516 1517 1518 1519 1520 1521 1523 1524 1525 1526 1527 1529 1530 1531 1532 1534 1535 1536 1537 1538 1540 1541 1542 1543 1544 1545 1546 1546 1547 1548
1510 1509 1511 1510 1505 1505 1506 1505 1506 1507 1506 1508 1509 1511 1513 1515 1516 1517 1518 1519 1520 1522 1522 1524 1525 1526 1527 1529 1531 1532 1533 1534 1535 1536 1537 1539 1540 1541 1542 1543 1543 1544 1545 1545
1509 1511 1516 1503 1501 1502 1503 1504 1504 1504 1505 1507 1508 1510 1511 1512 1513 1514 1516 1517 1518 1519 1520 1522 1523 1524 1525 1527 1528 1530 1531 1532 1533 1534 1535 1536 1537 1538 1539 1541 1541 1542 1542 1543
1508 1509 1504 1502 1501 1502 1502 1502 1503 1503 1504 1506 1507 1507 1508 1510 1511 1512 1513 1514 1516 1517 1518 1519 1520 1522 1523 1524 1526 1527 1528 1529 1530 1531 1532 1534 1535 1536 1537 1538 1538 1539 1540 1541
1507 1509 1506 1498 1498 1501 1502 1501 1502 1503 1504 1505 1505 1503 1504 1507 1508 1509 1510 1512 1513 1515 1516 1517 1518 1519 1521 1522 1523 1524 1525 1526 1528 1529 1530 1531 1532 1533 1534 1535 1536 1536 1537 1538
1504 1503 1496 1495 1499 1501 1504 1498 1501 1502 1503 1504 1505 1504 1505 1505 1506 1507 1508 1509 1510 1512 1513 1514 1516 1517 1518 1519 1520 1522 1523 1524 1525 1526 1527 1528 1529 1530 1531 1532 1533 1534 1535 1535
1500 1501 1499 1497 1499 1499 1497 1498 1500 1501 1502 1503 1504 1504 1504 1504 1504 1504 1505 1506 1508 1509 1510 1512 1513 1514 1516 1517 1518 1519 1520 1521 1522 1523 1524 1526 1526 1527 1528 1529 1530 1531 1532 1533
1495 1495 1494 1496 1496 1497 1498 1498 1499 1500 1501 1501 1502 1501 1502 1502 1502 1502 1503 1504 1505 1507 1508 1509 1511 1512 1513 1514 1515 1516 1518 1519 1520 1521 1522 1523 1524 1525 1525 1526 1527 1528 1529 1530
1495 1493 1495 1496 1496 1496 1497 1498 1498 1499 1499 1499 1499 1499 1499 1499 1500 1500 1501 1501 1503 1504 1505 1506 1508 1509 1511 1512 1513 1514 1515 1516 1517 1518 1519 1519 1520 1521 1522 1523 1524 1525 1526 1527
1492 1492 1493 1493 1493 1494 1495 1495 1495 1496 1496 1497 1497 1496 1497 1497 1497 1497 1498 1498 1500 1501 1501 1503 1504 1506 1507 1508 1510 1511 1512 1513 1514 1515 1515 1516 1517 1518 1518 1520 1520 1522 1522 1523
1489 1489 1490 1490 1490 1491 1492 1491 1492 1492 1492 1493 1493 1493 1493 1494 1494 1494 1494 1495 1496 1497 1498 1500 1501 1502 1504 1505 1506 1508 1509 1510 1510 1511 1512 1512 1513 1514 1515 1516 1516 1517 1518 1519
1489 1488 1488 1487 1487 1488 1488 1488 1488 1488 1488 1489 1489 1490 1490 1490 1490 1490 1491 1492 1493 1494 1495 1496 1497 1498 1500 1501 1503 1504 1505 1506 1507 1507 1508 1509 1510 1510 1510 1511 1512 1513 1514 1515
1486 1486 1484 1483 1483 1483 1483 1483 1483 1484 1484 1485 1485 1486 1486 1486 1487 1487 1488 1488 1490 1491 1492 1493 1494 1495 1496 1498 1499 1500 1501 1502 1503 1503 1504 1505 1506 1506 1507 1507 1508 1508 1509 1510
1482 1481 1481 1479 1479 1479 1478 1479 1479 1479 1480 1481 1481 1482 1482 1483 1483 1484 1484 1485 1486 1487 1488 1489 1490 1491 1493 1494 1495 1496 1497 1498 1499 1500 1500 1501 1502 1502 1503 1504 1504 1504 1504 1505
1477 1477 1476 1476 1475 1475 1475 1475 1475 1475 1476 1476 1477 1478 1479 1479 1480 1480 1481 1482 1483 1484 1485 1485 1486 1488 1489 1490 1492 1492 1493 1494 1495 1496 1496 1497 1497 1498 1498 1499 1499 1500 1500 1501
1473 1472 1472 1472 1471 1471 1471 1471 1471 1472 1472 1473 1473 1474 1475 1476 1476 1477 1478 1479 1480 1480 1481 1482 1483 1484 1485 1487 1488 1488 1489 1490 1490 1491 1492 1492 1493 1493 1494 1494 1495 1495 1495 1496
1469 1469 1469 1468 1468 1467 1467 1467 1467 1468 1468 1469 1470 1471 1472 1473 1473 1474 1475 1475 1476 1477 1477 1478 1479 1480 1481 1482 1484 1484 1485 1485 1486 1487 1487 1488 1488 1489 1489 1489 1490 1490 1490 1491
1465 1465 1465 1465 1464 1464 1463 1463 1463 1464 1465 1465 1466 1467 1468 1469 1470 1471 1471 1472 1472 1473 1473 1474 1475 1475 1477 1478 1479 1480 1480 1481 1482 1482 1482 1483 1483 1484 1484 1484 1485 1485 1485 1485
1461 1461 1461 1461 1461 1461 1460 1460 1461 1461 1461 1462 1463 1464 1464 1466 1466 1467 1468 1469 1469 1469 1469 1470 1470 1471 1472 1473 1474 1475 1475 1476 1476 1477 1477 1478 1478 1478 1479 1479 1479 1480 1480 1480
1458 1458 1458 1458 1458 1458 1458 1458 1458 1458 1459 1459 1459 1460 1461 1462 1463 1464 1464 1464 1465 1465 1465 1466 1466 1467 1468 1469 1469 1470 1471 1471 1471 1472 1472 1472 1473 1473 1473 1473 1474 1474 1474 1474
1456 1456 1456 1455 1455 1455 1455 1455 1455 1455 1456 1456 1456 1457 1457 1458 1459 1460 1460 1460 1461 1461 1461 1462 1462 1463 1463 1464 1465 1465 1465 1466 1466 1467 1467 1467 1467 1467 1467 1468 1468 1468 1468 1468
1454 1454 1454 1453 1453 1453 1453 1453 1453 1453 1453 1453 1453 1454 1454 1455 1455 1456 1456 1457 1457 1457 1457 1458 1458 1459 1460 1460 1460 1460 1460 1461 1461 1461 1461 1462 1462 1462 1462 1462 1462 1462 1462 1462
1452 1451 1451 1451 1451 1450 1450 1450 1451 1450 1450 1450 1451 1451 1451 1451 1451 1452 1453 1453 1453 1453 1454 1454 1454 1455 1456 1456 1456 1456 1456 1456 1456 1456 1456 1456 1456 1457 1457 1456 1456 1456 1456 1455
1449 1449 1449 1448 1448 1448 1448 1448 1448 1448 1447 1447 1448 1448 1448 1448 1448 1448 1449 1449 1449 1450 1450 1450 1450 1451 1451 1451 1451 1451 1451 1451 1451 1451 1451 1451 1451 1451 1451 1451 1450 1450 1449 1449
1447 1446 1446 1446 1446 1445 1445 1445 1444 1444 1444 1444 1444 1444 1444 1444 1445 1445 1445 1445 1446 1446 1446 1446 1446 1446 1447 1447 1446 1446 1446 1446 1446 1446 1446 1446 1445 1445 1445 1444 1444 1444 1443 1442
1444 1443 1443 1442 1442 1442 1442 1442 1441 1441 1441 1441 1441 1441 1441 1441 1441 1441 1441 1441 1441 1441 1441 1441 1441 1442 1442 1442 1441 1441 1441 1441 1441 1441 1440 1440 1440 1439 1439 1438 1438 1437 1436 1436